KC2ASA Weather Reports


Display with metric or nautical units.
time (UTC)temp
F
wind
direction
speed
MPH
gust
MPH
rain 1hr
in
rain 24hr
in
rain mn
in
humidity
%
barometer
mb
20260903234521 75 212 0.0 0.0 0.00 0.00 0.00 93 1011.9
20260903233021 76 212 0.0 0.0 0.00 0.00 0.00 92 1012.0
20260903231624 77 212 0.0 0.0 0.00 0.00 0.00 91 1011.6
20260903230019 77 212 0.0 0.0 0.00 0.00 0.00 91 1011.7
20260903224526 78 212 0.0 0.0 0.00 0.00 0.00 91 1011.8
20260903223017 79 212 0.0 0.0 0.00 0.00 0.00 90 1011.9
20260903221517 80 212 0.0 0.0 0.00 0.00 0.00 90 1012.0
20260903220028 80 212 0.0 0.0 0.00 0.00 0.00 89 1011.9
20260903214516 80 212 0.0 0.0 0.00 0.00 0.00 88 1011.8
20260903213022 80 212 0.0 0.0 0.00 0.00 0.00 87 1011.8
20260903211513 81 212 0.0 0.0 0.00 0.00 0.00 85 1011.8
20260903210017 81 212 0.0 0.0 0.00 0.00 0.00 81 1011.9
20260903204515 82 212 0.0 0.0 0.00 0.00 0.00 78 1011.9
20260903203012 83 203 0.0 1.0 0.00 0.00 0.00 76 1011.9
20260903201521 83 205 0.0 1.0 0.00 0.00 0.00 79 1011.8
20260903200010 83 214 0.0 0.0 0.00 0.00 0.00 80 1012.0
20260903194509 82 214 0.0 0.0 0.00 0.00 0.00 79 1012.2
20260903193011 82 214 0.0 0.0 0.00 0.00 0.00 79 1012.2
20260903191509 82 214 0.0 1.0 0.00 0.00 0.00 79 1012.3
20260903190005 82 214 0.0 0.0 0.00 0.00 0.00 80 1012.4
20260903184505 82 214 0.0 2.0 0.00 0.00 0.00 78 1012.5
20260903183003 82 215 0.0 3.0 0.00 0.00 0.00 77 1012.7
20260903181501 82 210 0.0 2.0 0.00 0.00 0.00 77 1012.7
20260903180001 82 210 0.0 1.0 0.00 0.00 0.00 76 1012.8
20260903174559 83 78 0.0 4.0 0.00 0.00 0.00 74 1012.9
20260903173057 83 129 0.0 3.0 0.00 0.00 0.00 74 1013.1
20260903171602 83 183 0.0 3.0 0.00 0.00 0.00 73 1013.4
20260903170054 84 40 2.0 5.0 0.00 0.00 0.00 72 1013.6
20260903164551 83 109 0.0 2.0 0.00 0.00 0.00 75 1013.6
20260903163047 82 86 0.0 5.0 0.00 0.00 0.00 75 1013.8
20260903161546 81 213 0.0 3.0 0.00 0.00 0.00 78 1013.9
20260903160041 80 101 0.0 2.0 0.00 0.00 0.00 79 1014.3
20260903154540 80 219 0.0 3.0 0.00 0.00 0.00 79 1014.4
20260903153037 80 217 0.0 3.0 0.00 0.00 0.00 82 1014.8
20260903151534 79 225 0.0 1.0 0.00 0.00 0.00 82 1014.7
20260903150042 77 226 0.0 3.0 0.00 0.00 0.00 84 1014.7
20260903144525 76 219 0.0 1.0 0.00 0.00 0.00 88 1014.8
20260903143035 74 222 0.0 2.0 0.00 0.00 0.00 90 1014.7
20260903141526 73 218 0.0 2.0 0.00 0.00 0.00 91 1014.8
20260903140017 74 217 0.0 0.0 0.00 0.00 0.00 94 1014.9
20260903134534 73 217 0.0 0.0 0.00 0.00 0.00 95 1014.9
20260903133014 73 39 0.0 0.0 0.00 0.00 0.00 97 1015.0
20260903131511 72 39 0.0 0.0 0.00 0.00 0.00 97 1014.8
20260903130010 72 39 0.0 0.0 0.00 0.00 0.00 97 1014.9
20260903124506 71 39 0.0 0.0 0.00 0.00 0.00 98 1015.1
20260903123010 70 39 0.0 0.0 0.00 0.00 0.00 98 1015.1
20260903121601 0 0.0 0.0 0.00 0.00 0.00 1015.2
20260903120056 0 0.0 0.0 0.00 0.00 0.00 1015.1
20260903114553 0 0.0 0.0 0.00 0.00 0.00 1015.1
20260903113048 0 0.0 0.0 0.00 0.00 0.00 1015.4
20260903111543 0 0.0 0.0 0.00 0.00 0.00 1015.4
20260903110038 0 0.0 0.0 0.00 0.00 0.00 1015.7
20260903104535 0 0.0 0.0 0.00 0.00 0.00 1015.7
20260903103031 0 0.0 0.0 0.00 0.00 0.00 1015.3
20260903101532 0 0.0 0.0 0.00 0.00 0.00 1015.6
20260903100022 0 0.0 0.0 0.00 0.00 0.00 1015.4
20260903094518 0 0.0 0.0 0.00 0.00 0.00 1015.2
20260903093020 0 0.0 0.0 0.00 0.00 0.00 1014.8
20260903091509 0 0.0 0.0 0.00 0.00 0.00 1014.9
20260903090004 0 0.0 0.0 0.00 0.00 0.00 1015.3
20260903084602 0 0.0 0.0 0.00 0.00 0.00 1015.7
20260903083056 0 0.0 0.0 0.00 0.00 0.00 1015.2
20260903081554 0 0.0 0.0 0.00 0.00 0.00 1015.0
20260903080047 0 0.0 0.0 0.00 0.00 0.00 1015.5
20260903074542 0 0.0 0.0 0.00 0.00 0.00 1015.9
20260903073043 0 0.0 0.0 0.00 0.00 0.00 1015.9
20260903071533 0 0.0 0.0 0.00 0.00 0.00 1015.7
20260903070029 0 0.0 0.0 0.00 0.00 0.00 1015.6
20260903064525 0 0.0 0.0 0.00 0.00 0.00 1015.9
20260903063020 0 0.0 0.0 0.00 0.00 0.00 1016.1
20260903061515 0 0.0 0.0 0.00 0.00 0.00 1016.4
20260903060012 0 0.0 0.0 0.00 0.00 0.00 1017.0
20260903054507 0 0.0 0.0 0.00 0.00 0.00 1017.2
20260903053008 0 0.0 0.0 0.00 0.00 0.00 1017.3
20260903051603 0 0.0 0.0 0.00 0.00 0.00 1017.4
20260903050055 0 0.0 0.0 0.00 0.00 0.00 1017.5
20260903044553 0 0.0 0.0 0.00 0.00 0.00 1018.9
20260903043047 0 0.0 0.0 0.00 0.00 0.00 1019.7
20260903041542 0 0.0 0.0 0.00 0.00 0.00 1018.9
20260903040037 0 0.0 0.0 0.00 0.00 0.00 1018.9
20260903034533 0 0.0 0.0 0.00 0.00 0.00 1018.8
20260903033029 0 0.0 0.0 0.00 0.00 0.00 1018.5
20260903031532 0 0.0 0.0 0.00 0.00 0.00 1018.8
20260903030021 0 0.0 0.0 0.00 0.00 0.00 1018.4
20260903024516 0 0.0 0.0 0.00 0.00 0.00 1018.7
20260903023014 0 0.0 0.0 0.00 0.00 0.00 1019.0
20260903021520 0 0.0 0.0 0.00 0.00 0.00 1018.7
20260903020004 0 0.0 0.0 0.00 0.00 0.00 1019.3
20260903014600 0 0.0 0.0 0.00 0.00 0.00 1019.0
20260903013057 0 0.0 0.0 0.00 0.00 0.00 1019.0
20260903011549 0 0.0 0.0 0.00 0.00 0.00 1019.1
20260903010045 0 0.0 0.0 0.00 0.00 0.00 1019.3
20260903004542 0 0.0 0.0 0.00 0.00 0.00 1019.6
20260903003038 0 0.0 0.0 0.00 0.00 0.00 1019.4
20260903001534 0 0.0 0.0 0.00 0.00 0.00 1019.7
20260903000028 0 0.0 0.0 0.00 0.00 0.00 1019.2